Mitchell, SD

9:26 AM CDT on April 23, 2018 (GMT -0500)
Mitchell Municipal

Weather History for KMHE - September, 2013

Change the Weather History Date:

Monday, September 16, 2013

  Actual Average Record
Temperature  
Mean Temperature 61 °F 63 °F  
Max Temperature 71 °F 76 °F 98 °F (1955)
Min Temperature 51 °F 49 °F 27 °F (1903)
Degree Days  
Heating Degree Days 4 4  
Month to date heating degree days 13 44  
Since 1 July heating degree days 36 61  
Cooling Degree Days 0 2  
Month to date cooling degree days 115 57  
Year to date cooling degree days 896 802  
Growing Degree Days 12 (Base 50)    
Moisture  
Dew Point 50 °F    
Average Humidity 76    
Maximum Humidity 97    
Minimum Humidity 45    
Precipitation  
Precipitation 0.00 in 0.07 in 1.93 in (1907)
Month to date precipitation 0.23 1.26  
Year to date precipitation 18.72 17.61  
Snow  
Snow 0.00 in - 0.00 in ()
Month to date snowfall 0.0  
Since 1 July snowfall 0.0  
Since 1 September snowfall 0.0  
Snow Depth 0.00 in    
Sea Level Pressure  
Sea Level Pressure 30.26 in    
Wind  
Wind Speed 8 mph (SSE)    
Max Wind Speed 20 mph    
Max Gust Speed 25 mph    
Visibility 10 miles    
Events      
T = Trace of Precipitation, MM = Missing Value Source: NWS Daily Summary

Daily Weather History Graph

Daily Weather History Graph

Search for Another Location

Airport or City:

Astronomy

Sep. 16, 2013 Rise Set
Actual Time 7:12 AM CDT 7:40 PM CDT
Civil Twilight 6:44 AM CDT 8:08 PM CDT
Nautical Twilight 6:09 AM CDT 8:42 PM CDT
Astronomical Twilight 5:34 AM CDT 9:17 PM CDT
Moon 5:53 PM CDT (9/16) 3:55 AM CDT (9/16)
Length of Visible Light 13h 24m
Length of Day
12h 27m
Waxing Gibbous, 90% of the Moon is Illuminated
Sep 16
Waxing Gibbous
Sep 19
Full
Sep 26
Last Quarter
Oct 4
New
Oct 11
First Quarter

Hourly Weather History & Observations

Time (CDT) Temp. Dew Point Humidity Pressure Visibility Wind Dir Wind Speed Gust Speed Precip Events Conditions
12:53 AM 52.0 °F 50.0 °F 93% 30.31 in 10.0 mi North 3.5 mph - N/A   Overcast
1:53 AM 52.0 °F 51.1 °F 97% 30.32 in 10.0 mi Calm Calm - N/A   Overcast
2:53 AM 52.0 °F 51.1 °F 97% 30.32 in 10.0 mi Calm Calm - N/A   Overcast
3:53 AM 52.0 °F 51.1 °F 97% 30.31 in 10.0 mi Calm Calm - N/A   Overcast
4:53 AM 52.0 °F 50.0 °F 93% 30.32 in 10.0 mi Calm Calm - N/A   Overcast
5:53 AM 53.1 °F 52.0 °F 96% 30.32 in 10.0 mi SE 4.6 mph - N/A   Overcast
6:53 AM 52.0 °F 51.1 °F 97% 30.33 in 10.0 mi ESE 4.6 mph - N/A   Overcast
7:53 AM 53.1 °F 51.1 °F 93% 30.35 in 10.0 mi SE 9.2 mph - N/A   Mostly Cloudy
8:53 AM 53.1 °F 52.0 °F 96% 30.36 in 10.0 mi SSE 6.9 mph - N/A   Overcast
9:00 AM 53.6 °F 51.8 °F 94% 30.35 in 10.0 mi SSE 6.9 mph - N/A   Overcast
9:53 AM 55.0 °F 52.0 °F 89% 30.36 in 10.0 mi SE 8.1 mph - N/A   Overcast
10:53 AM 59.0 °F 52.0 °F 78% 30.36 in 10.0 mi SSE 6.9 mph - N/A   Overcast
11:53 AM 64.0 °F 51.1 °F 63% 30.33 in 10.0 mi South 9.2 mph - N/A   Mostly Cloudy
12:53 PM 64.9 °F 48.9 °F 56% 30.30 in 10.0 mi SE 6.9 mph 17.3 mph N/A   Mostly Cloudy
1:53 PM 70.0 °F 48.9 °F 47% 30.27 in 10.0 mi South 13.8 mph 20.7 mph N/A   Scattered Clouds
2:53 PM 70.0 °F 48.0 °F 46% 30.24 in 10.0 mi SSE 13.8 mph 25.3 mph N/A   Clear
3:53 PM 71.1 °F 48.9 °F 45% 30.22 in 10.0 mi SSE 15.0 mph - N/A   Clear
4:53 PM 70.0 °F 48.9 °F 47% 30.19 in 10.0 mi SSE 15.0 mph 21.9 mph N/A   Clear
5:53 PM 68.0 °F 50.0 °F 52% 30.17 in 10.0 mi South 13.8 mph - N/A   Clear
6:53 PM 66.9 °F 50.0 °F 54% 30.17 in 10.0 mi SSE 10.4 mph - N/A   Clear
7:53 PM 62.1 °F 50.0 °F 65% 30.14 in 10.0 mi SE 9.2 mph - N/A   Clear
8:53 PM 61.0 °F 50.0 °F 67% 30.15 in 10.0 mi SE 9.2 mph - N/A   Clear
9:53 PM 57.9 °F 50.0 °F 75% 30.15 in 10.0 mi SSE 6.9 mph - N/A   Clear
10:53 PM 57.0 °F 50.0 °F 77% 30.14 in 10.0 mi SSE 9.2 mph - N/A   Clear
11:53 PM 57.9 °F 51.1 °F 78% 30.13 in 10.0 mi SSE 10.4 mph - N/A   Scattered Clouds